This is the latest recevied weather packets stored in our database for station/object N8ESC. If no packets are shown the sender has not sent any weather packets the latest 10 day(s).
| Time | Temp. | Humidity | Pressure | Rain* | Wind** | Luminosity | Snow |
|---|---|---|---|---|---|---|---|
| 1777952533 | 10° C | 45% | 997.9 hPa | 0 mm | - | 0 W/m² | - |
| 1777952228 | 10° C | 45% | 997.8 hPa | 0 mm | - | 0 W/m² | - |
| 1777951927 | 10° C | 44% | 997.9 hPa | 0 mm | - | 0 W/m² | - |
| 1777951625 | 10° C | 43% | 997.7 hPa | 0 mm | - | 0 W/m² | - |
| 1777951320 | 10.56° C | 42% | 997.7 hPa | 0 mm | - | 0 W/m² | - |
| 1777951018 | 10.56° C | 43% | 997.7 hPa | 0 mm | - | 0 W/m² | - |
| 1777950714 | 10.56° C | 42% | 997.4 hPa | 0 mm | - | 0 W/m² | - |
| 1777950411 | 10.56° C | 42% | 997.3 hPa | 0 mm | - | 0 W/m² | - |
| 1777950107 | 10.56° C | 42% | 997.1 hPa | 0 mm | - | 0 W/m² | - |
| 1777949803 | 10.56° C | 42% | 997.1 hPa | 0 mm | - | 0 W/m² | - |
| 1777949502 | 11.11° C | 42% | 997 hPa | 0 mm | - | 0 W/m² | - |
| 1777949199 | 11.67° C | 42% | 997 hPa | 0 mm | - | 0 W/m² | - |
| 1777948896 | 11.67° C | 44% | 997.1 hPa | 0 mm | - | 0 W/m² | - |
| 1777948593 | 11.67° C | 44% | 996.7 hPa | 0 mm | - | 0 W/m² | - |
| 1777948291 | 11.67° C | 45% | 996.5 hPa | 0 mm | - | 0 W/m² | - |
| 1777947988 | 11.67° C | 45% | 996.4 hPa | 0 mm | - | 0 W/m² | - |
| 1777947685 | 11.67° C | 45% | 996.4 hPa | 0 mm | - | 0 W/m² | - |
| 1777947381 | 11.67° C | 45% | 996.4 hPa | 0 mm | - | 0 W/m² | - |
| 1777947078 | 11.67° C | 48% | 996.4 hPa | 0 mm | - | 0 W/m² | - |
| 1777946774 | 11.67° C | 53% | 996.2 hPa | 0 mm | - | 0 W/m² | - |
| 1777946470 | 11.11° C | 58% | 996 hPa | 0 mm | - | 0 W/m² | - |
| 1777946168 | 11.11° C | 61% | 996 hPa | 0 mm | - | 0 W/m² | - |
| 1777945864 | 11.11° C | 62% | 995.8 hPa | 0 mm | - | 0 W/m² | - |
| 1777945561 | 11.11° C | 61% | 995.6 hPa | 0 mm | - | 0 W/m² | - |
| 1777945258 | 11.11° C | 62% | 995.6 hPa | 0 mm | - | 0 W/m² | - |
* Rain latest hour (hover to see other rain measurements)
** Current wind speed in m/s (hover to see current wind gust speed)